Find NovaSAR-S

NORAD ID: 43619 Int'l Des: 2018-071 Owner: SSTLA Country: UK operational
LEOCIRCULARRETROGRADESSO

实时位置

正在加载3D地球...

关于 NovaSAR-S

正在加载描述...

即将过境

Passes for default location (London). Set your location on the main map for personalized predictions.

高度历史

Loading altitude history...

两行轨道根数

1 43619U 18071B 26132.27534734 .00000778 00000-0 73803-4 0 9996
2 43619 97.5125 6.0600 0001866 93.8823 266.2612 14.96214792417563
Epoch: May 12, 2026 • Age: 7 hours

当前状态

高度 585.6 km
速度 7.57 km/s
星下点 50.35°N, 121.05°E
发射日期 Sep 16, 2018
运行时间 7.6 years
类型 other

技术详情

分类 Payload
质量 445.00 kg
干质量 400.00 kg
总质量 445.00 kg
长度 3.00 m
直径 1.00 m
跨度 3.00 m
形状 Box tri
制造商 SSTLA
平台类型 NovaSAR-S
阶段状态 In Orbit
所有者/国家 SSTLA/UK

Most Searched